BANGABANDHUSAT-1

Last updated on Jan. 15, 2021, 6:31 a.m. UTC

1 43463U 18044A   21014.76160608 -.00000370  00000-0  00000-0 0  9990
2 43463   0.0186  74.5193 0001711 228.8435 204.3416  1.00267097  9863
UTC
Height (km)
Latitude
Longitude
Inclination
Orbital Period
UTC large
Height (km)
Speed (km/s)
/
Latitude / Longitude
Inclination (degrees)
Orbital Period (minutes)
Azimuth
Elevation
Range (km)
Doppler Factor
iOS Compass Heading
iOS Angle

Next 30 passes for location: Hong Kong

Rise time Rise Azimuth (degrees) Set time Set Azimuth (degrees) Duration Max altitude (degrees)

No matching passes for this satellites